QFA25 YSSY-RJTT

Flight info

Callsign QFA25
Flight time 5h 17m
Altitude 35000
Route OLSEM H252 UPNEX H140 IDNER H66 LAGOB/N0503F340 H252 BN Q67 GUDSO Q24 KELPI B220 LAMEK/N0499F360 G205 GOOFI/N0494F380 G205 JUNIE A337 DAGDA/N0486F390 Y819 OLVEK/N0485F400 Y824 AROSA
Aircraft A35K/H-SDE2E3GHIJ3J4J5LM1ORWXY/LB1D1

Departure

Time 2026-05-07 23:21
Airport Sydney Kingsford Smith International Airport (YSSY)

Arrival

Time 2026-05-08 04:39
Airport Tokyo Haneda International Airport (RJTT)
Time Latitude Longitude Altitude Speed Heading
2026-05-07 22:56 -33.93611 151.17011 36 ft 0 kts 168°
2026-05-07 23:04 -33.93603 151.17009 35 ft 4 kts 171°
2026-05-07 23:05 -33.93577 151.17007 34 ft 4 kts 187°
2026-05-07 23:05 -33.93550 151.17013 35 ft 4 kts 182°
2026-05-07 23:05 -33.93530 151.17007 34 ft 4 kts 146°
2026-05-07 23:05 -33.93516 151.16985 34 ft 4 kts 98°
2026-05-07 23:06 -33.93512 151.16959 32 ft 4 kts 106°
2026-05-07 23:06 -33.93500 151.16933 32 ft 4 kts 141°
2026-05-07 23:06 -33.93477 151.16917 35 ft 4 kts 161°
2026-05-07 23:06 -33.93451 151.16908 34 ft 4 kts 168°
2026-05-07 23:07 -33.93443 151.16906 34 ft 5 kts 167°
2026-05-07 23:09 -33.93463 151.16912 36 ft 7 kts 166°
2026-05-07 23:09 -33.93505 151.16943 35 ft 8 kts 127°
2026-05-07 23:09 -33.93507 151.17007 36 ft 9 kts 77°
2026-05-07 23:10 -33.93507 151.17081 35 ft 9 kts 116°
2026-05-07 23:10 -33.93566 151.17119 35 ft 11 kts 166°
2026-05-07 23:10 -33.93645 151.17140 35 ft 12 kts 168°
2026-05-07 23:10 -33.93736 151.17163 35 ft 14 kts 168°
2026-05-07 23:11 -33.93839 151.17190 34 ft 16 kts 168°
2026-05-07 23:11 -33.93953 151.17220 35 ft 17 kts 168°
2026-05-07 23:11 -33.94076 151.17252 35 ft 19 kts 168°
2026-05-07 23:11 -33.94211 151.17287 35 ft 20 kts 168°
2026-05-07 23:12 -33.94350 151.17323 36 ft 21 kts 168°
2026-05-07 23:12 -33.94495 151.17360 36 ft 22 kts 168°
2026-05-07 23:12 -33.94629 151.17390 36 ft 9 kts 194°
2026-05-07 23:12 -33.94658 151.17393 36 ft 4 kts 163°
2026-05-07 23:13 -33.94706 151.17413 36 ft 9 kts 162°
2026-05-07 23:13 -33.94773 151.17432 36 ft 11 kts 167°
2026-05-07 23:13 -33.94854 151.17454 35 ft 13 kts 167°
2026-05-07 23:13 -33.94949 151.17478 35 ft 15 kts 168°
2026-05-07 23:14 -33.95053 151.17505 35 ft 16 kts 168°
2026-05-07 23:14 -33.95167 151.17534 35 ft 18 kts 168°
2026-05-07 23:14 -33.95291 151.17566 35 ft 19 kts 168°
2026-05-07 23:14 -33.95424 151.17600 35 ft 20 kts 168°
2026-05-07 23:15 -33.95563 151.17636 35 ft 21 kts 168°
2026-05-07 23:15 -33.95710 151.17673 36 ft 22 kts 168°
2026-05-07 23:15 -33.95863 151.17712 36 ft 23 kts 168°
2026-05-07 23:15 -33.96023 151.17753 36 ft 24 kts 168°
2026-05-07 23:16 -33.96160 151.17788 36 ft 17 kts 168°
2026-05-07 23:16 -33.96282 151.17823 36 ft 19 kts 166°
2026-05-07 23:16 -33.96388 151.17851 36 ft 15 kts 167°
2026-05-07 23:16 -33.96437 151.17928 36 ft 0 kts 87°
2026-05-07 23:18 -33.96437 151.17929 36 ft 1 kts 87°
2026-05-07 23:18 -33.96437 151.17931 36 ft 0 kts 87°
2026-05-07 23:19 -33.96435 151.17941 36 ft 2 kts 79°
2026-05-07 23:19 -33.96430 151.17966 36 ft 4 kts 77°
2026-05-07 23:19 -33.96422 151.18007 35 ft 6 kts 76°
2026-05-07 23:19 -33.96396 151.18043 35 ft 6 kts 28°
2026-05-07 23:20 -33.96368 151.18044 35 ft 6 kts 355°
2026-05-07 23:20 -33.96324 151.18035 35 ft 0 kts 348°
2026-05-07 23:21 -33.96238 151.18012 34 ft 41 kts 347°
2026-05-07 23:21 -33.95751 151.17883 34 ft 100 kts 348°
2026-05-07 23:21 -33.94906 151.17668 35 ft 150 kts 347°
2026-05-07 23:21 -33.93528 151.17329 830 ft 145 kts 341°
2026-05-07 23:22 -33.92477 151.17038 1099 ft 167 kts 337°
2026-05-07 23:22 -33.91689 151.16810 1203 ft 184 kts 337°
2026-05-07 23:22 -33.90355 151.16436 1410 ft 209 kts 338°
2026-05-07 23:22 -33.88792 151.16282 1570 ft 246 kts 358°
2026-05-07 23:23 -33.87107 151.15943 1893 ft 243 kts 323°
2026-05-07 23:23 -33.85962 151.14606 2620 ft 225 kts 293°
2026-05-07 23:23 -33.85268 151.12864 2939 ft 239 kts 285°
2026-05-07 23:23 -33.84568 151.11009 3486 ft 250 kts 291°
2026-05-07 23:24 -33.83633 151.09163 3966 ft 265 kts 299°
2026-05-07 23:24 -33.82517 151.07388 4685 ft 267 kts 303°
2026-05-07 23:24 -33.81314 151.05660 5334 ft 272 kts 306°
2026-05-07 23:24 -33.80058 151.03947 6030 ft 274 kts 307°
2026-05-07 23:25 -33.78766 151.02231 6714 ft 278 kts 307°
2026-05-07 23:25 -33.77323 151.00644 7386 ft 286 kts 320°
2026-05-07 23:25 -33.75499 150.99641 8099 ft 296 kts 343°
2026-05-07 23:25 -33.73404 150.99692 8780 ft 308 kts 14°
2026-05-07 23:26 -33.71544 151.00989 9415 ft 315 kts 46°
2026-05-07 23:26 -33.70386 151.03206 10033 ft 317 kts 73°
2026-05-07 23:26 -33.69964 151.05821 10426 ft 326 kts 93°
2026-05-07 23:26 -33.70054 151.08601 10668 ft 342 kts 100°
2026-05-07 23:27 -33.70568 151.14578 11186 ft 378 kts 99°
2026-05-07 23:27 -33.70749 151.17808 11435 ft 395 kts 97°
2026-05-07 23:27 -33.70810 151.21173 11680 ft 411 kts 94°
2026-05-07 23:28 -33.70721 151.24617 12059 ft 422 kts 90°
2026-05-07 23:28 -33.70463 151.28158 12593 ft 429 kts 86°
2026-05-07 23:28 -33.70025 151.31738 13104 ft 436 kts 83°
2026-05-07 23:28 -33.69387 151.35334 13568 ft 444 kts 78°
2026-05-07 23:29 -33.68508 151.38911 14080 ft 449 kts 73°
2026-05-07 23:29 -33.67387 151.42440 14533 ft 455 kts 69°
2026-05-07 23:29 -33.66315 151.46018 15006 ft 457 kts 76°
2026-05-07 23:29 -33.65489 151.49715 15476 ft 461 kts 76°
2026-05-07 23:30 -33.64629 151.53440 15979 ft 465 kts 76°
2026-05-07 23:30 -33.63448 151.57081 16473 ft 472 kts 62°
2026-05-07 23:30 -33.61505 151.60269 16932 ft 475 kts 44°
2026-05-07 23:30 -33.58892 151.62678 17406 ft 474 kts 25°
2026-05-07 23:31 -33.55869 151.64168 17956 ft 468 kts 11°
2026-05-07 23:31 -33.52713 151.65085 18439 ft 467 kts
2026-05-07 23:31 -33.49512 151.65795 18891 ft 469 kts
2026-05-07 23:31 -33.46279 151.66346 19322 ft 468 kts 358°
2026-05-07 23:32 -33.43041 151.66404 19769 ft 463 kts 349°
2026-05-07 23:32 -33.39843 151.66003 20227 ft 463 kts 345°
2026-05-07 23:32 -33.36645 151.65441 20700 ft 464 kts 343°
2026-05-07 23:32 -33.33493 151.64810 21170 ft 467 kts 343°
2026-05-07 23:33 -33.30283 151.64135 21623 ft 470 kts 342°
2026-05-07 23:33 -33.27055 151.63455 22176 ft 472 kts 343°
2026-05-07 23:33 -33.23813 151.62780 22628 ft 475 kts 343°
2026-05-07 23:33 -33.20535 151.62106 23011 ft 481 kts 343°
2026-05-07 23:34 -33.17219 151.61436 23495 ft 484 kts 344°
2026-05-07 23:34 -33.13872 151.60768 23916 ft 488 kts 344°
2026-05-07 23:34 -33.10516 151.60104 24404 ft 489 kts 344°
2026-05-07 23:34 -33.07158 151.59443 24942 ft 488 kts 343°
2026-05-07 23:35 -33.03811 151.58784 25468 ft 487 kts 343°
2026-05-07 23:35 -33.00467 151.58127 26082 ft 485 kts 343°
2026-05-07 23:35 -32.97137 151.57469 26557 ft 486 kts 343°
2026-05-07 23:35 -32.93798 151.56806 26995 ft 488 kts 343°
2026-05-07 23:36 -32.90442 151.56140 27433 ft 489 kts 343°
2026-05-07 23:36 -32.87077 151.55473 27880 ft 490 kts 342°
2026-05-07 23:36 -32.83755 151.54816 28309 ft 491 kts 342°
2026-05-07 23:36 -32.80371 151.54180 28690 ft 495 kts 345°
2026-05-07 23:37 -32.76909 151.53931 29198 ft 502 kts 353°
2026-05-07 23:37 -32.73408 151.54284 29897 ft 507 kts
2026-05-07 23:37 -32.69958 151.55223 30460 ft 510 kts
2026-05-07 23:37 -32.66551 151.56389 30852 ft 511 kts
2026-05-07 23:38 -32.63153 151.57655 31171 ft 512 kts 10°
2026-05-07 23:38 -32.59756 151.58963 31510 ft 512 kts 10°
2026-05-07 23:38 -32.56370 151.60273 31846 ft 512 kts 10°
2026-05-07 23:38 -32.52990 151.61572 32203 ft 510 kts 10°
2026-05-07 23:39 -32.49608 151.62857 32538 ft 509 kts 10°
2026-05-07 23:39 -32.46234 151.64126 32906 ft 508 kts
2026-05-07 23:39 -32.42867 151.65386 33283 ft 506 kts
2026-05-07 23:39 -32.39515 151.66634 33572 ft 505 kts
2026-05-07 23:40 -32.36159 151.67880 33828 ft 505 kts
2026-05-07 23:40 -32.32814 151.69121 34161 ft 502 kts
2026-05-07 23:40 -32.29485 151.70356 34446 ft 501 kts
2026-05-07 23:40 -32.26159 151.71589 34668 ft 500 kts
2026-05-07 23:41 -32.22883 151.72802 34877 ft 500 kts
2026-05-07 23:41 -32.19565 151.74030 35074 ft 500 kts
2026-05-07 23:41 -32.12891 151.76492 35163 ft 506 kts
2026-05-07 23:42 -32.06169 151.78975 35172 ft 506 kts
2026-05-07 23:42 -31.99460 151.81453 35170 ft 505 kts
2026-05-07 23:43 -31.92747 151.83927 35173 ft 505 kts
2026-05-07 23:43 -31.86044 151.86392 35168 ft 504 kts
2026-05-07 23:44 -31.79356 151.88850 35165 ft 504 kts
2026-05-07 23:44 -31.72661 151.91305 35172 ft 503 kts
2026-05-07 23:45 -31.66021 151.93736 35174 ft 503 kts
2026-05-07 23:45 -31.59330 151.96183 35170 ft 502 kts
2026-05-07 23:46 -31.52646 151.98624 35169 ft 502 kts
2026-05-07 23:46 -31.45971 152.01053 35161 ft 502 kts
2026-05-07 23:47 -31.39344 152.03464 35172 ft 502 kts
2026-05-07 23:47 -31.32658 152.05897 35173 ft 502 kts
2026-05-07 23:48 -31.25992 152.08317 35182 ft 502 kts
2026-05-07 23:48 -31.19325 152.10734 35180 ft 502 kts
2026-05-07 23:49 -31.12658 152.13146 35188 ft 501 kts
2026-05-07 23:49 -31.05983 152.15555 35196 ft 501 kts
2026-05-07 23:50 -30.99305 152.17962 35185 ft 501 kts
2026-05-07 23:50 -30.92690 152.20347 35202 ft 500 kts
2026-05-07 23:51 -30.86044 152.22741 35196 ft 499 kts
2026-05-07 23:51 -30.79407 152.25124 35197 ft 499 kts
2026-05-07 23:52 -30.72763 152.27501 35207 ft 499 kts
2026-05-07 23:52 -30.66123 152.29883 35191 ft 499 kts
2026-05-07 23:53 -30.59488 152.32258 35192 ft 498 kts
2026-05-07 23:53 -30.52856 152.34628 35184 ft 499 kts
2026-05-07 23:54 -30.46229 152.37050 35188 ft 501 kts
2026-05-07 23:54 -30.39675 152.39892 35191 ft 504 kts 10°
2026-05-07 23:55 -30.33169 152.42822 35179 ft 504 kts 10°
2026-05-07 23:55 -30.26613 152.45709 35182 ft 503 kts
2026-05-07 23:56 -30.20056 152.48545 35181 ft 503 kts
2026-05-07 23:56 -30.13501 152.51364 35184 ft 503 kts
2026-05-07 23:57 -30.06933 152.54188 35177 ft 503 kts
2026-05-07 23:57 -30.00394 152.56999 35185 ft 501 kts
2026-05-07 23:58 -29.93860 152.59801 35183 ft 501 kts
2026-05-07 23:58 -29.87323 152.62598 35192 ft 501 kts
2026-05-07 23:59 -29.80795 152.65391 35189 ft 500 kts
2026-05-07 23:59 -29.74278 152.68176 35189 ft 499 kts
2026-05-08 00:00 -29.67759 152.70955 35204 ft 499 kts
2026-05-08 00:00 -29.61249 152.73727 35177 ft 499 kts
2026-05-08 00:01 -29.54727 152.76500 35195 ft 499 kts
2026-05-08 00:01 -29.48249 152.79252 35193 ft 499 kts
2026-05-08 00:02 -29.41735 152.82018 35201 ft 499 kts
2026-05-08 00:02 -29.35218 152.84782 35199 ft 500 kts
2026-05-08 00:03 -29.28686 152.87524 35201 ft 499 kts
2026-05-08 00:03 -29.22166 152.90258 35201 ft 499 kts
2026-05-08 00:04 -29.15642 152.92996 35171 ft 499 kts
2026-05-08 00:04 -29.09124 152.95731 35207 ft 499 kts
2026-05-08 00:05 -29.03701 152.98004 35208 ft 499 kts
2026-05-08 00:05 -28.96086 153.01189 35205 ft 499 kts
2026-05-08 00:06 -28.90666 153.03454 35182 ft 498 kts
2026-05-08 00:06 -28.86325 153.05019 35209 ft 487 kts
2026-05-08 00:06 -28.83042 153.05950 35206 ft 485 kts
2026-05-08 00:07 -28.76486 153.07676 35205 ft 483 kts 360°
2026-05-08 00:07 -28.71037 153.09065 35206 ft 483 kts 360°
2026-05-08 00:08 -28.64482 153.10741 35192 ft 483 kts 360°
2026-05-08 00:08 -28.57927 153.12425 35199 ft 482 kts 360°
2026-05-08 00:09 -28.51376 153.14112 35205 ft 482 kts 360°
2026-05-08 00:09 -28.44825 153.15800 35205 ft 483 kts 360°
2026-05-08 00:10 -28.38264 153.17486 35201 ft 483 kts 360°
2026-05-08 00:10 -28.31705 153.19167 35203 ft 483 kts
2026-05-08 00:11 -28.25186 153.20842 35192 ft 483 kts 360°
2026-05-08 00:11 -28.18631 153.22522 35195 ft 483 kts
2026-05-08 00:12 -28.12068 153.24208 35199 ft 483 kts 360°
2026-05-08 00:12 -28.05511 153.25880 35204 ft 483 kts 360°
2026-05-08 00:13 -27.98955 153.27551 35199 ft 483 kts
2026-05-08 00:13 -27.92388 153.29225 35201 ft 483 kts 360°
2026-05-08 00:14 -27.85823 153.30919 35199 ft 484 kts
2026-05-08 00:14 -27.79284 153.32197 35159 ft 466 kts 350°
2026-05-08 00:15 -27.76100 153.32151 34958 ft 450 kts 342°
2026-05-08 00:15 -27.73057 153.31578 34711 ft 437 kts 334°
2026-05-08 00:15 -27.70235 153.30543 34486 ft 428 kts 328°
2026-05-08 00:15 -27.67483 153.29271 34272 ft 427 kts 326°
2026-05-08 00:16 -27.62053 153.26554 34200 ft 427 kts 326°
2026-05-08 00:16 -27.56618 153.23804 34206 ft 428 kts 326°
2026-05-08 00:17 -27.51165 153.21089 34203 ft 428 kts 326°
2026-05-08 00:17 -27.45701 153.18395 34202 ft 429 kts 326°
2026-05-08 00:18 -27.40199 153.15854 34211 ft 436 kts 332°
2026-05-08 00:18 -27.37226 153.15005 34211 ft 447 kts 339°
2026-05-08 00:18 -27.34091 153.14631 34196 ft 461 kts 347°
2026-05-08 00:19 -27.30833 153.14787 34214 ft 474 kts 353°
2026-05-08 00:19 -27.27539 153.15211 34210 ft 479 kts 355°
2026-05-08 00:19 -27.20918 153.16305 34207 ft 482 kts 356°
2026-05-08 00:20 -27.14297 153.17440 34205 ft 481 kts 356°
2026-05-08 00:20 -27.07678 153.18525 34187 ft 480 kts 356°
2026-05-08 00:21 -27.01059 153.19579 34199 ft 480 kts 356°
2026-05-08 00:21 -26.94443 153.20624 34197 ft 479 kts 356°
2026-05-08 00:22 -26.87834 153.21667 34195 ft 479 kts 356°
2026-05-08 00:22 -26.81225 153.22710 34186 ft 479 kts 355°
2026-05-08 00:23 -26.74622 153.23752 34192 ft 478 kts 355°
2026-05-08 00:23 -26.71389 153.24051 34193 ft 466 kts 348°
2026-05-08 00:23 -26.68161 153.23876 34188 ft 452 kts 341°
2026-05-08 00:24 -26.65119 153.23214 34187 ft 440 kts 334°
2026-05-08 00:24 -26.62215 153.22320 34187 ft 438 kts 333°
2026-05-08 00:24 -26.56411 153.20317 34184 ft 436 kts 332°
2026-05-08 00:25 -26.50623 153.18261 34184 ft 436 kts 332°
2026-05-08 00:25 -26.44831 153.16234 34185 ft 436 kts 332°
2026-05-08 00:26 -26.39030 153.14228 34186 ft 436 kts 332°
2026-05-08 00:26 -26.33224 153.12229 34191 ft 436 kts 332°
2026-05-08 00:27 -26.27425 153.10235 34189 ft 436 kts 332°
2026-05-08 00:27 -26.21564 153.08387 34187 ft 439 kts 334°
2026-05-08 00:28 -26.15659 153.06655 34187 ft 438 kts 334°
2026-05-08 00:28 -26.09804 153.04925 34186 ft 438 kts 334°
2026-05-08 00:29 -26.03916 153.03159 34188 ft 438 kts 334°
2026-05-08 00:29 -25.98034 153.01386 34187 ft 438 kts 334°
2026-05-08 00:30 -25.92159 152.99616 34188 ft 437 kts 334°
2026-05-08 00:30 -25.86292 152.97853 34186 ft 436 kts 334°
2026-05-08 00:31 -25.80428 152.96092 34187 ft 436 kts 334°
2026-05-08 00:31 -25.74598 152.94342 34188 ft 436 kts 334°
2026-05-08 00:32 -25.68731 152.92585 34181 ft 436 kts 334°
2026-05-08 00:32 -25.62909 152.90755 34184 ft 430 kts 330°
2026-05-08 00:33 -25.57345 152.88413 34187 ft 427 kts 329°
2026-05-08 00:33 -25.51827 152.85970 34187 ft 426 kts 328°
2026-05-08 00:34 -25.46323 152.83517 34184 ft 426 kts 328°
2026-05-08 00:34 -25.40813 152.81072 34186 ft 426 kts 328°
2026-05-08 00:35 -25.35306 152.78640 34173 ft 426 kts 329°
2026-05-08 00:35 -25.29798 152.76210 34185 ft 426 kts 329°
2026-05-08 00:36 -25.24326 152.73799 34184 ft 426 kts 329°
2026-05-08 00:36 -25.18819 152.71374 34184 ft 426 kts 329°
2026-05-08 00:37 -25.13316 152.68954 34182 ft 426 kts 329°
2026-05-08 00:38 -25.05051 152.65323 34182 ft 426 kts 329°
2026-05-08 00:38 -24.99546 152.62907 34184 ft 426 kts 329°
2026-05-08 00:39 -24.94037 152.60492 34183 ft 426 kts 329°
2026-05-08 00:39 -24.88529 152.58080 34181 ft 426 kts 329°
2026-05-08 00:40 -24.83052 152.55683 34183 ft 426 kts 329°
2026-05-08 00:40 -24.77541 152.53275 34181 ft 426 kts 329°
2026-05-08 00:41 -24.72026 152.50864 34191 ft 427 kts 329°
2026-05-08 00:41 -24.66492 152.48449 34171 ft 428 kts 329°
2026-05-08 00:42 -24.60954 152.46037 34183 ft 428 kts 329°
2026-05-08 00:42 -24.55423 152.43629 34172 ft 428 kts 329°
2026-05-08 00:43 -24.49876 152.41217 34171 ft 428 kts 329°
2026-05-08 00:43 -24.44342 152.38811 34175 ft 428 kts 330°
2026-05-08 00:44 -24.38796 152.36402 34176 ft 429 kts 330°
2026-05-08 00:44 -24.33246 152.33995 34176 ft 429 kts 330°
2026-05-08 00:45 -24.27719 152.31600 34173 ft 429 kts 330°
2026-05-08 00:45 -24.22164 152.29195 34173 ft 429 kts 330°
2026-05-08 00:46 -24.16608 152.26792 34173 ft 429 kts 330°
2026-05-08 00:46 -24.11049 152.24388 34176 ft 430 kts 330°
2026-05-08 00:47 -24.05481 152.21984 34173 ft 430 kts 330°
2026-05-08 00:47 -23.99907 152.19580 34167 ft 430 kts 330°
2026-05-08 00:48 -23.94333 152.17178 34169 ft 430 kts 330°
2026-05-08 00:48 -23.88759 152.14778 34169 ft 430 kts 330°
2026-05-08 00:49 -23.83217 152.12394 34152 ft 430 kts 330°
2026-05-08 00:49 -23.77632 152.09993 34165 ft 432 kts 330°
2026-05-08 00:50 -23.72036 152.07591 34165 ft 432 kts 330°
2026-05-08 00:50 -23.66439 152.05190 34165 ft 432 kts 330°
2026-05-08 00:51 -23.60844 152.02793 34165 ft 432 kts 330°
2026-05-08 00:51 -23.55248 152.00397 34165 ft 432 kts 330°
2026-05-08 00:52 -23.49644 151.97999 34165 ft 434 kts 331°
2026-05-08 00:52 -23.44015 151.95592 34165 ft 435 kts 331°
2026-05-08 00:53 -23.38387 151.93190 34154 ft 435 kts 331°
2026-05-08 00:53 -23.32754 151.90788 34162 ft 435 kts 331°
2026-05-08 00:54 -23.27162 151.88405 34158 ft 434 kts 331°
2026-05-08 00:54 -23.21526 151.86005 34144 ft 434 kts 331°
2026-05-08 00:55 -23.15885 151.83603 34152 ft 436 kts 331°
2026-05-08 00:55 -23.11179 151.81602 34154 ft 437 kts 331°
2026-05-08 00:56 -23.05516 151.79198 34156 ft 437 kts 331°
2026-05-08 00:56 -22.98928 151.76403 34153 ft 437 kts 331°
2026-05-08 00:57 -22.94183 151.74391 34155 ft 437 kts 331°
2026-05-08 00:57 -22.88518 151.71992 34155 ft 438 kts 331°
2026-05-08 00:58 -22.82877 151.69603 34154 ft 438 kts 332°
2026-05-08 00:58 -22.77184 151.67197 34145 ft 439 kts 332°
2026-05-08 00:59 -22.71500 151.64797 34145 ft 439 kts 332°
2026-05-08 00:59 -22.65812 151.62396 34153 ft 439 kts 332°
2026-05-08 01:00 -22.60112 151.59992 34128 ft 439 kts 332°
2026-05-08 01:00 -22.54402 151.57622 34148 ft 441 kts 333°
2026-05-08 01:01 -22.48558 151.55516 34142 ft 443 kts 335°
2026-05-08 01:01 -22.42678 151.53479 34141 ft 443 kts 334°
2026-05-08 01:02 -22.36855 151.51422 34141 ft 443 kts 334°
2026-05-08 01:02 -22.31001 151.49324 34142 ft 443 kts 334°
2026-05-08 01:03 -22.25152 151.47220 34133 ft 444 kts 334°
2026-05-08 01:03 -22.19291 151.45115 34138 ft 444 kts 334°
2026-05-08 01:04 -22.13425 151.43012 34142 ft 444 kts 334°
2026-05-08 01:04 -22.07551 151.40909 34141 ft 444 kts 334°
2026-05-08 01:05 -22.01675 151.38807 34133 ft 444 kts 334°
2026-05-08 01:05 -21.95845 151.36722 34131 ft 444 kts 334°
2026-05-08 01:06 -21.89976 151.34626 34128 ft 444 kts 334°
2026-05-08 01:06 -21.84108 151.32532 34129 ft 444 kts 334°
2026-05-08 01:07 -21.78243 151.30440 34127 ft 444 kts 334°
2026-05-08 01:07 -21.72375 151.28350 34126 ft 444 kts 334°
2026-05-08 01:08 -21.66505 151.26260 34106 ft 444 kts 334°
2026-05-08 01:08 -21.60631 151.24170 34126 ft 445 kts 334°
2026-05-08 01:09 -21.54786 151.22093 34121 ft 445 kts 334°
2026-05-08 01:09 -21.48917 151.20010 34118 ft 445 kts 334°
2026-05-08 01:10 -21.43036 151.17924 34123 ft 445 kts 334°
2026-05-08 01:10 -21.37159 151.15840 34115 ft 445 kts 334°
2026-05-08 01:11 -21.31267 151.13753 34120 ft 445 kts 334°
2026-05-08 01:11 -21.25384 151.11672 34109 ft 446 kts 334°
2026-05-08 01:12 -21.19486 151.09587 34111 ft 446 kts 334°
2026-05-08 01:12 -21.13593 151.07505 34110 ft 446 kts 334°
2026-05-08 01:13 -21.07739 151.05439 34118 ft 446 kts 334°
2026-05-08 01:13 -21.01846 151.03360 34108 ft 446 kts 335°
2026-05-08 01:14 -20.95942 151.01279 34106 ft 447 kts 335°
2026-05-08 01:14 -20.90027 150.99197 34102 ft 447 kts 335°
2026-05-08 01:15 -20.84146 150.97129 34105 ft 447 kts 335°
2026-05-08 01:15 -20.78239 150.95052 34103 ft 447 kts 335°
2026-05-08 01:16 -20.72318 150.92973 34096 ft 447 kts 335°
2026-05-08 01:16 -20.66395 150.90893 34098 ft 448 kts 335°
2026-05-08 01:17 -20.60465 150.88814 34096 ft 448 kts 335°
2026-05-08 01:17 -20.54530 150.86736 34095 ft 449 kts 335°
2026-05-08 01:18 -20.48639 150.84674 34093 ft 449 kts 335°
2026-05-08 01:18 -20.42704 150.82598 34074 ft 448 kts 335°
2026-05-08 01:19 -20.36761 150.80520 34086 ft 449 kts 335°
2026-05-08 01:19 -20.30815 150.78444 34094 ft 449 kts 335°
2026-05-08 01:20 -20.24907 150.76383 34089 ft 449 kts 335°
2026-05-08 01:20 -20.18963 150.74311 34089 ft 449 kts 335°
2026-05-08 01:21 -20.13016 150.72239 34086 ft 450 kts 335°
2026-05-08 01:21 -20.07062 150.70166 34085 ft 450 kts 335°
2026-05-08 01:22 -20.01100 150.68092 34078 ft 450 kts 335°
2026-05-08 01:22 -19.95143 150.66022 34078 ft 450 kts 335°
2026-05-08 01:23 -19.89183 150.63953 34078 ft 450 kts 335°
2026-05-08 01:23 -19.83260 150.61898 34078 ft 450 kts 335°
2026-05-08 01:24 -19.77299 150.59831 34071 ft 451 kts 335°
2026-05-08 01:24 -19.71335 150.57764 34073 ft 451 kts 335°
2026-05-08 01:25 -19.65365 150.55698 34070 ft 451 kts 335°
2026-05-08 01:25 -19.59402 150.53636 34069 ft 451 kts 335°
2026-05-08 01:26 -19.53436 150.51574 34067 ft 451 kts 335°
2026-05-08 01:26 -19.47465 150.49512 34057 ft 451 kts 335°
2026-05-08 01:27 -19.41483 150.47446 34061 ft 453 kts 335°
2026-05-08 01:27 -19.35528 150.45393 34060 ft 453 kts 335°
2026-05-08 01:28 -19.29534 150.43329 34062 ft 453 kts 335°
2026-05-08 01:28 -19.23533 150.41263 34062 ft 453 kts 335°
2026-05-08 01:29 -19.17533 150.39199 34064 ft 453 kts 335°
2026-05-08 01:29 -19.11525 150.37133 34057 ft 455 kts 335°
2026-05-08 01:30 -19.05501 150.35063 34058 ft 455 kts 335°
2026-05-08 01:30 -18.99473 150.32995 34059 ft 455 kts 335°
2026-05-08 01:31 -18.93447 150.30928 34057 ft 455 kts 335°
2026-05-08 01:31 -18.87426 150.28865 34050 ft 455 kts 335°
2026-05-08 01:32 -18.81439 150.26815 34050 ft 455 kts 335°
2026-05-08 01:32 -18.75410 150.24752 34048 ft 455 kts 335°
2026-05-08 01:33 -18.69379 150.22689 34048 ft 455 kts 335°
2026-05-08 01:33 -18.63351 150.20630 34045 ft 455 kts 335°
2026-05-08 01:34 -18.57326 150.18573 34045 ft 455 kts 335°
2026-05-08 01:34 -18.51284 150.16511 34048 ft 456 kts 336°
2026-05-08 01:35 -18.45270 150.14460 34048 ft 457 kts 336°
2026-05-08 01:35 -18.39209 150.12395 34031 ft 458 kts 336°
2026-05-08 01:36 -18.33144 150.10331 34031 ft 458 kts 336°
2026-05-08 01:36 -18.27080 150.08269 34042 ft 458 kts 336°
2026-05-08 01:37 -18.21021 150.06209 34035 ft 458 kts 336°
2026-05-08 01:37 -18.14769 150.04654 34167 ft 469 kts 347°
2026-05-08 01:37 -18.11495 150.04521 34517 ft 471 kts 353°
2026-05-08 01:38 -18.08263 150.04572 34806 ft 471 kts 354°
2026-05-08 01:38 -18.04990 150.04693 35047 ft 471 kts 355°
2026-05-08 01:38 -18.01712 150.04846 35266 ft 471 kts 355°
2026-05-08 01:38 -17.89875 150.05415 35971 ft 469 kts 355°
2026-05-08 01:39 -17.77154 150.05976 36024 ft 452 kts 354°
2026-05-08 01:39 -17.52020 150.07039 36019 ft 453 kts 354°
2026-05-08 01:40 -17.27382 150.08099 36005 ft 437 kts 354°
2026-05-08 01:40 -17.14986 150.08607 36009 ft 456 kts 355°
2026-05-08 01:40 -17.02029 150.09161 35992 ft 473 kts 355°
2026-05-08 01:40 -16.88647 150.09733 36003 ft 488 kts 355°
2026-05-08 01:41 -16.74990 150.10318 35999 ft 494 kts 355°
2026-05-08 01:41 -16.47587 150.11484 35990 ft 495 kts 356°
2026-05-08 01:42 -16.19894 150.12653 35982 ft 497 kts 356°
2026-05-08 01:42 -15.92287 150.13816 35979 ft 497 kts 357°
2026-05-08 01:43 -15.64660 150.14977 35977 ft 497 kts 357°
2026-05-08 01:43 -15.37133 150.16130 35968 ft 498 kts 357°
2026-05-08 01:44 -15.09400 150.17288 35960 ft 500 kts 358°
2026-05-08 01:44 -14.81560 150.18449 35957 ft 502 kts 358°
2026-05-08 01:45 -14.58310 150.19421 35944 ft 502 kts 358°
2026-05-08 01:45 -14.30269 150.20579 35952 ft 504 kts 358°
2026-05-08 01:46 -14.02208 150.21741 35944 ft 505 kts 358°
2026-05-08 01:46 -13.74070 150.22903 35941 ft 506 kts 359°
2026-05-08 01:47 -13.45867 150.24064 35933 ft 508 kts 359°
2026-05-08 01:47 -13.17621 150.25225 35931 ft 507 kts 359°
2026-05-08 01:48 -12.75199 150.26963 35931 ft 508 kts 359°
2026-05-08 01:48 -12.47125 150.28110 35927 ft 508 kts 359°
2026-05-08 01:49 -12.18845 150.29263 35930 ft 508 kts 359°
2026-05-08 01:49 -11.90504 150.30395 35911 ft 510 kts 359°
2026-05-08 01:50 -11.62164 150.31413 35917 ft 510 kts 359°
2026-05-08 01:50 -11.33758 150.32450 35914 ft 510 kts 359°
2026-05-08 01:51 -11.05391 150.33483 35910 ft 509 kts 360°
2026-05-08 01:51 -10.77087 150.34512 35914 ft 509 kts 360°
2026-05-08 01:52 -10.48751 150.35540 35913 ft 509 kts
2026-05-08 01:52 -10.20539 150.34566 35907 ft 507 kts 349°
2026-05-08 01:53 -9.92625 150.30321 35898 ft 507 kts 350°
2026-05-08 01:53 -9.64657 150.26126 35898 ft 508 kts 350°
2026-05-08 01:54 -9.36837 150.21958 35901 ft 508 kts 350°
2026-05-08 01:54 -9.08881 150.17776 35898 ft 508 kts 350°
2026-05-08 01:55 -8.80851 150.13591 35889 ft 508 kts 351°
2026-05-08 01:55 -8.52971 150.09399 35885 ft 508 kts 351°
2026-05-08 01:56 -8.24990 150.05186 35887 ft 508 kts 351°
2026-05-08 01:56 -7.97017 150.00982 35884 ft 508 kts 351°
2026-05-08 01:57 -7.69032 149.96782 35881 ft 509 kts 351°
2026-05-08 01:57 -7.40958 149.92574 35881 ft 511 kts 351°
2026-05-08 01:58 -7.13020 149.88392 35879 ft 511 kts 351°
2026-05-08 01:58 -6.84676 149.84154 35879 ft 512 kts 351°
2026-05-08 01:59 -6.56640 149.79968 35880 ft 513 kts 351°
2026-05-08 01:59 -6.28321 149.75744 35879 ft 514 kts 352°
2026-05-08 02:00 -6.00002 149.71525 35884 ft 513 kts 352°
2026-05-08 02:00 -5.71737 149.67318 35870 ft 513 kts 352°
2026-05-08 02:01 -5.43641 149.63140 35854 ft 516 kts 352°
2026-05-08 02:01 -5.15237 149.58921 35853 ft 516 kts 352°
2026-05-08 02:02 -4.86799 149.54700 35853 ft 515 kts 353°
2026-05-08 02:02 -4.58447 149.50496 35856 ft 515 kts 353°
2026-05-08 02:03 -4.30028 149.46286 35854 ft 515 kts 353°
2026-05-08 02:03 -4.01670 149.42087 35854 ft 515 kts 353°
2026-05-08 02:04 -3.73582 149.37931 35853 ft 513 kts 353°
2026-05-08 02:04 -3.45325 149.33753 35854 ft 513 kts 353°
2026-05-08 02:05 -3.17068 149.29578 35852 ft 513 kts 353°
2026-05-08 02:05 -2.88745 149.25395 35854 ft 513 kts 353°
2026-05-08 02:06 -2.60439 149.21216 35853 ft 513 kts 353°
2026-05-08 02:06 -2.32193 149.17049 35851 ft 513 kts 353°
2026-05-08 02:07 -2.03922 149.12879 35850 ft 514 kts 353°
2026-05-08 02:07 -1.75777 149.08730 35848 ft 513 kts 353°
2026-05-08 02:08 -1.47532 149.04567 35851 ft 512 kts 353°
2026-05-08 02:08 -1.19408 149.00424 35845 ft 510 kts 353°
2026-05-08 02:09 -0.91273 148.96278 35846 ft 509 kts 353°
2026-05-08 02:09 -0.63211 148.92145 35845 ft 509 kts 353°
2026-05-08 02:10 -0.35198 148.88019 35846 ft 508 kts 353°
2026-05-08 02:10 -0.07394 148.83925 35845 ft 508 kts 353°
2026-05-08 02:11 0.20571 148.79805 35843 ft 507 kts 353°
2026-05-08 02:11 0.48541 148.75685 35843 ft 507 kts 353°
2026-05-08 02:12 0.76525 148.71563 35842 ft 508 kts 353°
2026-05-08 02:12 1.04501 148.67441 35846 ft 509 kts 354°
2026-05-08 02:13 1.32560 148.63307 35841 ft 509 kts 354°
2026-05-08 02:13 1.60398 148.59203 35843 ft 508 kts 354°
2026-05-08 02:14 1.88337 148.55085 35840 ft 507 kts 353°
2026-05-08 02:14 2.16319 148.50959 35843 ft 509 kts 353°
2026-05-08 02:15 2.44359 148.46822 35843 ft 508 kts 353°
2026-05-08 02:15 2.72371 148.42688 35846 ft 508 kts 353°
2026-05-08 02:16 2.99878 148.38625 35845 ft 492 kts 353°
2026-05-08 02:16 3.26992 148.34620 35842 ft 492 kts 353°
2026-05-08 02:17 3.54124 148.30610 35844 ft 492 kts 353°
2026-05-08 02:17 3.81246 148.26598 35847 ft 492 kts 353°
2026-05-08 02:18 4.08476 148.22568 35850 ft 494 kts 353°
2026-05-08 02:18 4.35704 148.18536 35851 ft 494 kts 353°
2026-05-08 02:19 4.62938 148.14499 35851 ft 495 kts 353°
2026-05-08 02:19 4.90209 148.10455 35851 ft 496 kts 353°
2026-05-08 02:20 5.17360 148.06420 35848 ft 496 kts 353°
2026-05-08 02:20 5.44684 148.02352 35853 ft 496 kts 353°
2026-05-08 02:21 5.72083 147.98270 35856 ft 498 kts 352°
2026-05-08 02:21 5.99537 147.94175 35856 ft 499 kts 352°
2026-05-08 02:22 6.27058 147.90067 35859 ft 502 kts 352°
2026-05-08 02:22 6.54760 147.85927 35859 ft 504 kts 351°
2026-05-08 02:23 6.82549 147.81769 35859 ft 504 kts 351°
2026-05-08 02:23 7.10337 147.77607 35865 ft 505 kts 351°
2026-05-08 02:24 7.38009 147.73457 35861 ft 506 kts 351°
2026-05-08 02:24 7.65948 147.69262 35865 ft 508 kts 351°
2026-05-08 02:25 7.93908 147.65058 35862 ft 508 kts 350°
2026-05-08 02:25 8.21993 147.60830 35865 ft 509 kts 350°
2026-05-08 02:26 8.49971 147.56611 35864 ft 506 kts 350°
2026-05-08 02:26 8.77820 147.52406 35870 ft 505 kts 349°
2026-05-08 02:27 9.05642 147.48197 35869 ft 517 kts 349°
2026-05-08 02:27 9.34324 147.43854 35870 ft 519 kts 349°
2026-05-08 02:28 9.62879 147.39522 35875 ft 518 kts 349°
2026-05-08 02:28 9.91443 147.35180 35875 ft 520 kts 349°
2026-05-08 02:29 10.20063 147.30861 35875 ft 519 kts 349°
2026-05-08 02:29 10.48569 147.26633 35877 ft 517 kts 349°
2026-05-08 02:30 10.77051 147.22395 35881 ft 517 kts 349°
2026-05-08 02:30 11.05287 147.18186 35887 ft 516 kts 349°
2026-05-08 02:31 11.33740 147.13936 35886 ft 516 kts 349°
2026-05-08 02:31 11.62190 147.09845 35889 ft 517 kts 352°
2026-05-08 02:32 11.90793 147.06672 35896 ft 516 kts 352°
2026-05-08 02:32 12.19316 147.03402 35899 ft 514 kts 351°
2026-05-08 02:33 12.47594 147.00153 35903 ft 515 kts 351°
2026-05-08 02:33 12.76078 146.96864 35909 ft 516 kts 351°
2026-05-08 02:34 13.04612 146.93559 35912 ft 516 kts 351°
2026-05-08 02:34 13.33105 146.90251 35916 ft 515 kts 351°
2026-05-08 02:35 13.56950 146.87476 35920 ft 515 kts 351°
2026-05-08 02:35 13.85265 146.84175 35916 ft 515 kts 351°
2026-05-08 02:36 14.13834 146.80836 35920 ft 517 kts 351°
2026-05-08 02:36 14.42448 146.77480 35928 ft 516 kts 351°
2026-05-08 02:37 14.70998 146.74122 35936 ft 516 kts 351°
2026-05-08 02:37 14.99506 146.70760 35945 ft 515 kts 350°
2026-05-08 02:38 15.28008 146.67390 35950 ft 514 kts 350°
2026-05-08 02:38 15.56276 146.64037 35968 ft 511 kts 350°
2026-05-08 02:39 15.84274 146.60709 35957 ft 509 kts 349°
2026-05-08 02:39 16.12673 146.59067 35962 ft 511 kts 353°
2026-05-08 02:40 16.41023 146.57483 35971 ft 509 kts 353°
2026-05-08 02:40 16.69308 146.55904 35976 ft 508 kts 353°
2026-05-08 02:41 16.97585 146.54320 35982 ft 509 kts 353°
2026-05-08 02:41 17.25872 146.52731 35985 ft 510 kts 353°
2026-05-08 02:42 17.53553 146.47813 35993 ft 501 kts 337°
2026-05-08 02:42 17.79986 146.38166 35999 ft 503 kts 338°
2026-05-08 02:43 18.06500 146.28532 36002 ft 504 kts 338°
2026-05-08 02:43 18.33050 146.18852 36013 ft 506 kts 338°
2026-05-08 02:44 18.59501 146.09178 36012 ft 507 kts 338°
2026-05-08 02:44 18.86185 145.99385 36020 ft 507 kts 338°
2026-05-08 02:45 19.12886 145.89554 36023 ft 508 kts 338°
2026-05-08 02:45 19.39625 145.79674 36036 ft 508 kts 338°
2026-05-08 02:46 19.66366 145.69759 36039 ft 509 kts 338°
2026-05-08 02:46 19.92890 145.59889 36046 ft 509 kts 338°
2026-05-08 02:47 20.19624 145.49906 36050 ft 509 kts 338°
2026-05-08 02:47 20.46394 145.39873 36055 ft 510 kts 337°
2026-05-08 02:48 20.73315 145.29746 36064 ft 510 kts 338°
2026-05-08 02:48 20.99959 145.19824 36062 ft 513 kts 343°
2026-05-08 02:49 21.28018 145.13837 36065 ft 514 kts 346°
2026-05-08 02:49 21.56117 145.07967 36068 ft 513 kts 346°
2026-05-08 02:50 21.84179 145.02082 36070 ft 513 kts 346°
2026-05-08 02:50 22.12248 144.96171 36078 ft 513 kts 346°
2026-05-08 02:51 22.40072 144.90288 36076 ft 513 kts 346°
2026-05-08 02:51 22.68079 144.84343 36079 ft 512 kts 346°
2026-05-08 02:52 22.96063 144.78377 36083 ft 512 kts 346°
2026-05-08 02:52 23.24047 144.72386 36084 ft 512 kts 346°
2026-05-08 02:53 23.52008 144.66375 36092 ft 512 kts 346°
2026-05-08 02:53 23.79953 144.60341 36094 ft 512 kts 346°
2026-05-08 02:54 24.07922 144.54275 36083 ft 512 kts 346°
2026-05-08 02:54 24.35848 144.48191 36094 ft 512 kts 346°
2026-05-08 02:55 24.77584 144.39048 36095 ft 511 kts 346°
2026-05-08 02:56 25.05511 144.32885 36103 ft 511 kts 346°
2026-05-08 02:56 25.33411 144.26585 36102 ft 511 kts 346°
2026-05-08 02:57 25.44904 144.23987 36102 ft 511 kts 346°
2026-05-08 02:57 25.51883 144.22406 36102 ft 512 kts 346°
2026-05-08 02:58 25.58817 144.20834 36103 ft 512 kts 346°
2026-05-08 02:58 25.65793 144.19250 36102 ft 512 kts 346°
2026-05-08 02:59 25.72771 144.17664 36103 ft 512 kts 346°
2026-05-08 02:59 25.79766 144.16073 36102 ft 512 kts 346°
2026-05-08 03:00 25.86746 144.14483 36103 ft 512 kts 346°
2026-05-08 03:00 25.93728 144.12890 36115 ft 512 kts 346°
2026-05-08 03:01 26.00711 144.11296 36104 ft 512 kts 345°
2026-05-08 03:01 26.07693 144.09699 36102 ft 512 kts 345°
2026-05-08 03:02 26.14664 144.08103 36100 ft 512 kts 345°
2026-05-08 03:02 26.21606 144.06512 36099 ft 511 kts 345°
2026-05-08 03:03 26.28573 144.04913 36102 ft 511 kts 345°
2026-05-08 03:03 26.35548 144.03310 36102 ft 512 kts 345°
2026-05-08 03:04 26.42524 144.01705 36102 ft 511 kts 345°
2026-05-08 03:04 26.49491 144.00101 36099 ft 511 kts 345°
2026-05-08 03:05 26.56451 143.98496 36101 ft 511 kts 345°
2026-05-08 03:05 26.63411 143.96888 36115 ft 511 kts 345°
2026-05-08 03:06 26.70323 143.95290 36101 ft 510 kts 345°
2026-05-08 03:06 26.77272 143.93682 36099 ft 510 kts 345°
2026-05-08 03:07 26.84220 143.92071 36101 ft 510 kts 345°
2026-05-08 03:07 26.91154 143.90462 36098 ft 510 kts 345°
2026-05-08 03:08 26.98110 143.88845 36100 ft 510 kts 345°
2026-05-08 03:08 27.05056 143.87229 36100 ft 509 kts 345°
2026-05-08 03:09 27.11999 143.85612 36102 ft 510 kts 345°
2026-05-08 03:09 27.18952 143.83990 36099 ft 510 kts 345°
2026-05-08 03:10 27.25915 143.82364 36099 ft 510 kts 345°
2026-05-08 03:10 27.32829 143.80747 36106 ft 510 kts 344°
2026-05-08 03:11 27.39785 143.79119 36100 ft 510 kts 344°
2026-05-08 03:11 27.46733 143.77490 36099 ft 510 kts 344°
2026-05-08 03:12 27.53683 143.75858 36099 ft 510 kts 344°
2026-05-08 03:12 27.60631 143.74226 36098 ft 510 kts 344°
2026-05-08 03:13 27.67579 143.72591 36099 ft 509 kts 344°
2026-05-08 03:13 27.74522 143.70954 36099 ft 510 kts 344°
2026-05-08 03:14 27.81420 143.69327 36099 ft 510 kts 344°
2026-05-08 03:14 27.88361 143.67687 36097 ft 510 kts 344°
2026-05-08 03:15 27.95304 143.66044 36100 ft 510 kts 344°
2026-05-08 03:15 28.02256 143.64398 36100 ft 510 kts 343°
2026-05-08 03:16 28.09214 143.62746 36097 ft 511 kts 343°
2026-05-08 03:16 28.16187 143.61090 36098 ft 512 kts 343°
2026-05-08 03:17 28.23154 143.59433 36108 ft 512 kts 343°
2026-05-08 03:17 28.30127 143.57772 36100 ft 512 kts 343°
2026-05-08 03:18 28.37095 143.56111 36097 ft 512 kts 343°
2026-05-08 03:18 28.44020 143.54457 36099 ft 511 kts 343°
2026-05-08 03:19 28.50984 143.52792 36094 ft 511 kts 343°
2026-05-08 03:19 28.57953 143.51123 36096 ft 511 kts 343°
2026-05-08 03:20 28.64924 143.49452 36089 ft 511 kts 343°
2026-05-08 03:20 28.71878 143.47783 36091 ft 510 kts 343°
2026-05-08 03:21 28.78826 143.46112 36089 ft 510 kts 343°
2026-05-08 03:21 28.85769 143.44440 36088 ft 510 kts 343°
2026-05-08 03:22 28.92717 143.42765 36091 ft 509 kts 343°
2026-05-08 03:22 28.99598 143.41104 36092 ft 508 kts 343°
2026-05-08 03:23 29.06513 143.39433 36090 ft 508 kts 343°
2026-05-08 03:23 29.13435 143.37758 36085 ft 507 kts 342°
2026-05-08 03:24 29.19216 143.36357 36084 ft 506 kts 342°
2026-05-08 03:24 29.26111 143.34684 36082 ft 506 kts 342°
2026-05-08 03:25 29.32960 143.33019 36085 ft 506 kts 342°
2026-05-08 03:25 29.39842 143.31344 36080 ft 506 kts 342°
2026-05-08 03:26 29.46734 143.29665 36078 ft 506 kts 342°
2026-05-08 03:26 29.53627 143.27983 36096 ft 506 kts 342°
2026-05-08 03:27 29.60526 143.26296 36077 ft 507 kts 342°
2026-05-08 03:27 29.67429 143.24607 36071 ft 507 kts 342°
2026-05-08 03:28 29.74338 143.22914 36070 ft 508 kts 342°
2026-05-08 03:28 29.81209 143.21228 36068 ft 508 kts 342°
2026-05-08 03:29 29.88121 143.19530 36066 ft 508 kts 342°
2026-05-08 03:29 29.95047 143.17826 36064 ft 508 kts 342°
2026-05-08 03:30 30.05461 143.15349 36217 ft 511 kts 344°
2026-05-08 03:30 30.12472 143.13945 36453 ft 511 kts 345°
2026-05-08 03:31 30.19479 143.12557 36690 ft 510 kts 344°
2026-05-08 03:31 30.26472 143.11133 36888 ft 510 kts 344°
2026-05-08 03:32 30.29959 143.10413 36983 ft 509 kts 344°
2026-05-08 03:32 30.33450 143.09689 37085 ft 509 kts 344°
2026-05-08 03:32 30.36892 143.08975 37178 ft 509 kts 344°
2026-05-08 03:32 30.40375 143.08251 37292 ft 508 kts 343°
2026-05-08 03:33 30.43865 143.07526 37343 ft 509 kts 343°
2026-05-08 03:33 30.50841 143.06075 37495 ft 509 kts 343°
2026-05-08 03:34 30.57805 143.04627 37657 ft 508 kts 343°
2026-05-08 03:34 30.64760 143.03179 37836 ft 508 kts 343°
2026-05-08 03:35 30.71724 143.01725 37979 ft 507 kts 343°
2026-05-08 03:35 30.79100 143.00184 38115 ft 507 kts 343°
2026-05-08 03:36 30.86054 142.98728 38203 ft 509 kts 343°
2026-05-08 03:36 30.93026 142.97266 38296 ft 509 kts 343°
2026-05-08 03:37 30.99995 142.95804 38412 ft 508 kts 343°
2026-05-08 03:37 31.06921 142.94349 38541 ft 508 kts 343°
2026-05-08 03:38 31.13889 142.92882 38642 ft 508 kts 343°
2026-05-08 03:38 31.20857 142.91413 38731 ft 508 kts 343°
2026-05-08 03:39 31.27811 142.89946 38850 ft 507 kts 343°
2026-05-08 03:39 31.34759 142.88478 38942 ft 507 kts 343°
2026-05-08 03:40 31.41715 142.87004 39000 ft 507 kts 343°
2026-05-08 03:40 31.48655 142.85533 39019 ft 505 kts 343°
2026-05-08 03:41 31.55514 142.84077 39014 ft 504 kts 343°
2026-05-08 03:41 31.62417 142.82607 39012 ft 504 kts 343°
2026-05-08 03:42 31.69317 142.81136 39011 ft 504 kts 343°
2026-05-08 03:42 31.76216 142.79664 39004 ft 504 kts 343°
2026-05-08 03:43 31.83039 142.78213 39004 ft 492 kts 342°
2026-05-08 03:43 31.89758 142.76777 39000 ft 490 kts 342°
2026-05-08 03:44 31.96424 142.75342 38999 ft 490 kts 342°
2026-05-08 03:44 32.03136 142.73898 38993 ft 490 kts 342°
2026-05-08 03:45 32.09848 142.72455 38996 ft 491 kts 342°
2026-05-08 03:45 32.16568 142.71007 38995 ft 491 kts 342°
2026-05-08 03:46 32.23298 142.69557 38987 ft 491 kts 342°
2026-05-08 03:46 32.30032 142.68103 38979 ft 492 kts 342°
2026-05-08 03:47 32.36736 142.66653 38985 ft 493 kts 342°
2026-05-08 03:47 32.43485 142.65191 38979 ft 493 kts 342°
2026-05-08 03:48 32.50233 142.63727 38974 ft 494 kts 342°
2026-05-08 03:48 32.57015 142.62253 38974 ft 495 kts 342°
2026-05-08 03:49 32.63791 142.60779 38972 ft 495 kts 342°
2026-05-08 03:49 32.70576 142.59301 38969 ft 495 kts 342°
2026-05-08 03:50 32.77356 142.57822 38969 ft 495 kts 342°
2026-05-08 03:50 32.84136 142.56339 38961 ft 495 kts 342°
2026-05-08 03:51 32.90638 142.54915 38963 ft 496 kts 342°
2026-05-08 03:51 32.96060 142.53726 38952 ft 496 kts 342°
2026-05-08 03:52 33.02842 142.52238 38947 ft 496 kts 342°
2026-05-08 03:52 33.09642 142.50743 38948 ft 496 kts 342°
2026-05-08 03:53 33.15291 142.49499 38945 ft 496 kts 342°
2026-05-08 03:53 33.22088 142.48001 38941 ft 496 kts 342°
2026-05-08 03:54 33.28881 142.46501 38942 ft 496 kts 342°
2026-05-08 03:54 33.35684 142.44995 38933 ft 497 kts 342°
2026-05-08 03:55 33.42490 142.43488 38928 ft 497 kts 342°
2026-05-08 03:55 33.49295 142.41978 38924 ft 497 kts 342°
2026-05-08 03:56 33.56107 142.40463 38924 ft 498 kts 342°
2026-05-08 03:56 33.62882 142.38955 38920 ft 498 kts 342°
2026-05-08 03:57 33.69696 142.37435 38919 ft 498 kts 342°
2026-05-08 03:57 33.76515 142.35912 38912 ft 499 kts 342°
2026-05-08 03:58 33.83345 142.34398 38906 ft 500 kts 343°
2026-05-08 03:58 33.90291 142.33353 38906 ft 505 kts 347°
2026-05-08 03:59 33.97293 142.32534 38896 ft 505 kts 347°
2026-05-08 03:59 34.04276 142.31657 38916 ft 504 kts 346°
2026-05-08 04:00 34.11253 142.30719 38893 ft 505 kts 346°
2026-05-08 04:00 34.18239 142.29750 38896 ft 505 kts 346°
2026-05-08 04:01 34.25218 142.28780 38895 ft 505 kts 346°
2026-05-08 04:01 34.32161 142.27819 38881 ft 505 kts 346°
2026-05-08 04:02 34.39146 142.26852 38878 ft 505 kts 346°
2026-05-08 04:02 34.46134 142.25883 38873 ft 505 kts 346°
2026-05-08 04:03 34.53112 142.24914 38870 ft 505 kts 346°
2026-05-08 04:03 34.59995 142.23482 38867 ft 493 kts 335°
2026-05-08 04:03 34.63164 142.22003 38869 ft 482 kts 326°
2026-05-08 04:04 34.68534 142.17480 38859 ft 461 kts 308°
2026-05-08 04:04 34.72299 142.11395 38682 ft 444 kts 291°
2026-05-08 04:05 34.73519 142.07985 38443 ft 437 kts 283°
2026-05-08 04:05 34.74287 142.04432 38158 ft 432 kts 275°
2026-05-08 04:05 34.74609 142.00864 37922 ft 429 kts 268°
2026-05-08 04:05 34.74502 141.97255 37662 ft 425 kts 261°
2026-05-08 04:06 34.73983 141.93764 37255 ft 415 kts 253°
2026-05-08 04:06 34.73081 141.90463 36752 ft 409 kts 246°
2026-05-08 04:06 34.71936 141.87308 36161 ft 406 kts 246°
2026-05-08 04:06 34.70911 141.84125 35695 ft 402 kts 250°
2026-05-08 04:07 34.70144 141.80861 35181 ft 402 kts 256°
2026-05-08 04:07 34.69716 141.77498 34586 ft 404 kts 263°
2026-05-08 04:07 34.69583 141.74079 33972 ft 405 kts 265°
2026-05-08 04:07 34.69576 141.70645 33162 ft 408 kts 267°
2026-05-08 04:08 34.69638 141.67197 32398 ft 409 kts 268°
2026-05-08 04:08 34.69720 141.63726 31614 ft 414 kts 268°
2026-05-08 04:08 34.69802 141.60211 30813 ft 418 kts 268°
2026-05-08 04:08 34.69876 141.56656 30001 ft 423 kts 268°
2026-05-08 04:09 34.69948 141.52651 28952 ft 426 kts 268°
2026-05-08 04:09 34.69999 141.49525 28398 ft 424 kts 268°
2026-05-08 04:09 34.70055 141.45949 27794 ft 420 kts 268°
2026-05-08 04:09 34.70107 141.42419 27183 ft 415 kts 267°
2026-05-08 04:10 34.70137 141.38939 26577 ft 410 kts 266°
2026-05-08 04:10 34.70143 141.35479 25969 ft 409 kts 266°
2026-05-08 04:10 34.70138 141.32041 25377 ft 406 kts 266°
2026-05-08 04:10 34.70132 141.28623 24774 ft 403 kts 266°
2026-05-08 04:11 34.70126 141.22617 23710 ft 398 kts 266°
2026-05-08 04:11 34.70125 141.19522 23109 ft 395 kts 266°
2026-05-08 04:12 34.70126 141.16194 22469 ft 391 kts 266°
2026-05-08 04:12 34.70127 141.12911 21880 ft 387 kts 266°
2026-05-08 04:12 34.70128 141.09658 21283 ft 382 kts 266°
2026-05-08 04:12 34.70128 141.06441 20703 ft 378 kts 266°
2026-05-08 04:13 34.70126 141.03260 20111 ft 375 kts 265°
2026-05-08 04:13 34.70124 141.00111 19512 ft 371 kts 265°
2026-05-08 04:13 34.70120 140.96983 18921 ft 369 kts 265°
2026-05-08 04:13 34.70115 140.93874 18332 ft 366 kts 265°
2026-05-08 04:14 34.70110 140.90797 17687 ft 364 kts 265°
2026-05-08 04:14 34.70104 140.87741 17079 ft 359 kts 265°
2026-05-08 04:14 34.70096 140.84718 16493 ft 356 kts 265°
2026-05-08 04:14 34.70087 140.81727 15910 ft 352 kts 265°
2026-05-08 04:15 34.70078 140.78801 15309 ft 350 kts 265°
2026-05-08 04:15 34.70069 140.75853 14709 ft 347 kts 265°
2026-05-08 04:15 34.70059 140.72927 14115 ft 345 kts 266°
2026-05-08 04:15 34.70049 140.70022 13511 ft 343 kts 266°
2026-05-08 04:16 34.70038 140.67158 13101 ft 332 kts 266°
2026-05-08 04:16 34.70035 140.64503 12988 ft 297 kts 266°
2026-05-08 04:16 34.70032 140.62125 12885 ft 267 kts 266°
2026-05-08 04:16 34.70027 140.59985 12775 ft 241 kts 265°
2026-05-08 04:17 34.70018 140.58015 12672 ft 227 kts 265°
2026-05-08 04:17 34.70007 140.56136 12557 ft 217 kts 265°
2026-05-08 04:17 34.70004 140.54310 12476 ft 219 kts 266°
2026-05-08 04:17 34.70265 140.52321 12463 ft 255 kts 281°
2026-05-08 04:18 34.71170 140.50453 12452 ft 265 kts 306°
2026-05-08 04:18 34.72764 140.49198 12288 ft 281 kts 328°
2026-05-08 04:18 34.74623 140.48388 12032 ft 286 kts 333°
2026-05-08 04:18 34.76518 140.47640 11788 ft 286 kts 333°
2026-05-08 04:19 34.78404 140.46886 11559 ft 285 kts 332°
2026-05-08 04:19 34.80288 140.46119 11316 ft 285 kts 332°
2026-05-08 04:19 34.82224 140.45309 11188 ft 303 kts 332°
2026-05-08 04:19 34.84239 140.44465 11093 ft 308 kts 333°
2026-05-08 04:20 34.86268 140.43622 10892 ft 307 kts 333°
2026-05-08 04:20 34.88290 140.42780 10636 ft 307 kts 333°
2026-05-08 04:20 34.90310 140.41936 10404 ft 306 kts 333°
2026-05-08 04:20 34.92296 140.41105 10172 ft 305 kts 333°
2026-05-08 04:21 34.94324 140.40255 9943 ft 304 kts 333°
2026-05-08 04:21 34.96293 140.39428 9711 ft 303 kts 333°
2026-05-08 04:21 34.98284 140.38591 9616 ft 303 kts 333°
2026-05-08 04:21 35.00273 140.37753 9487 ft 302 kts 333°
2026-05-08 04:22 35.02261 140.36917 9398 ft 302 kts 333°
2026-05-08 04:22 35.04243 140.36082 9324 ft 301 kts 333°
2026-05-08 04:22 35.06222 140.35248 9245 ft 300 kts 333°
2026-05-08 04:22 35.08197 140.34415 9161 ft 300 kts 333°
2026-05-08 04:23 35.10164 140.33585 9076 ft 299 kts 333°
2026-05-08 04:23 35.12128 140.32757 9011 ft 298 kts 333°
2026-05-08 04:23 35.14087 140.31929 8937 ft 298 kts 333°
2026-05-08 04:23 35.16044 140.31103 8859 ft 297 kts 333°
2026-05-08 04:24 35.17993 140.30279 8785 ft 296 kts 333°
2026-05-08 04:24 35.19942 140.29454 8733 ft 296 kts 333°
2026-05-08 04:24 35.21883 140.28631 8677 ft 296 kts 334°
2026-05-08 04:24 35.23832 140.27805 8623 ft 297 kts 334°
2026-05-08 04:25 35.25783 140.26979 8582 ft 296 kts 334°
2026-05-08 04:25 35.27728 140.26155 8529 ft 296 kts 334°
2026-05-08 04:25 35.29667 140.25333 8485 ft 295 kts 334°
2026-05-08 04:25 35.31604 140.24512 8437 ft 294 kts 334°
2026-05-08 04:26 35.33536 140.23692 8355 ft 294 kts 334°
2026-05-08 04:26 35.35449 140.22882 8198 ft 287 kts 334°
2026-05-08 04:26 35.37353 140.22147 7991 ft 295 kts 340°
2026-05-08 04:26 35.39409 140.21792 7813 ft 300 kts 348°
2026-05-08 04:27 35.41492 140.21585 7635 ft 300 kts 349°
2026-05-08 04:27 35.43567 140.21387 7447 ft 298 kts 349°
2026-05-08 04:27 35.45634 140.21185 7282 ft 297 kts 349°
2026-05-08 04:27 35.47694 140.20979 7095 ft 297 kts 349°
2026-05-08 04:28 35.49746 140.20771 6977 ft 296 kts 349°
2026-05-08 04:28 35.51805 140.20561 6978 ft 296 kts 349°
2026-05-08 04:28 35.53770 140.20213 6955 ft 272 kts 340°
2026-05-08 04:28 35.55522 140.19662 6753 ft 250 kts 337°
2026-05-08 04:29 35.57136 140.19090 6545 ft 231 kts 334°
2026-05-08 04:29 35.58467 140.18249 6372 ft 201 kts 312°
2026-05-08 04:29 35.59324 140.17030 6148 ft 180 kts 293°
2026-05-08 04:29 35.59957 140.15692 6087 ft 180 kts 291°
2026-05-08 04:30 35.60459 140.14312 6000 ft 174 kts 278°
2026-05-08 04:30 35.60546 140.12863 5870 ft 169 kts 263°
2026-05-08 04:30 35.60505 140.11426 5721 ft 163 kts 264°
2026-05-08 04:30 35.60493 140.10095 5554 ft 149 kts 264°
2026-05-08 04:31 35.60491 140.08864 5314 ft 140 kts 263°
2026-05-08 04:31 35.60490 140.07689 5049 ft 134 kts 263°
2026-05-08 04:31 35.60489 140.06554 4863 ft 133 kts 263°
2026-05-08 04:31 35.60485 140.05409 4677 ft 134 kts 263°
2026-05-08 04:32 35.60480 140.04262 4475 ft 134 kts 263°
2026-05-08 04:32 35.60475 140.03130 4257 ft 134 kts 263°
2026-05-08 04:32 35.60466 140.01986 4065 ft 134 kts 262°
2026-05-08 04:32 35.60461 140.00842 3866 ft 134 kts 263°
2026-05-08 04:33 35.60456 139.99697 3667 ft 134 kts 263°
2026-05-08 04:33 35.60452 139.98548 3472 ft 135 kts 263°
2026-05-08 04:33 35.60448 139.97397 3290 ft 135 kts 264°
2026-05-08 04:33 35.60444 139.96245 3090 ft 134 kts 264°
2026-05-08 04:34 35.60439 139.95101 2891 ft 134 kts 264°
2026-05-08 04:34 35.60435 139.93956 2710 ft 133 kts 263°
2026-05-08 04:34 35.60430 139.92821 2489 ft 132 kts 263°
2026-05-08 04:34 35.60424 139.91694 2301 ft 132 kts 264°
2026-05-08 04:35 35.60420 139.90562 2102 ft 133 kts 264°
2026-05-08 04:35 35.60415 139.89423 1906 ft 134 kts 262°
2026-05-08 04:35 35.60410 139.88276 1710 ft 134 kts 263°
2026-05-08 04:35 35.60406 139.87139 1509 ft 133 kts 260°
2026-05-08 04:36 35.60400 139.86007 1323 ft 132 kts 259°
2026-05-08 04:36 35.60396 139.84875 1127 ft 133 kts 262°
2026-05-08 04:36 35.60392 139.83749 993 ft 131 kts 261°
2026-05-08 04:36 35.60357 139.82626 915 ft 132 kts 259°
2026-05-08 04:37 35.60129 139.81548 814 ft 130 kts 238°
2026-05-08 04:37 35.59650 139.80607 764 ft 131 kts 226°
2026-05-08 04:37 35.59032 139.79798 595 ft 129 kts 219°
2026-05-08 04:37 35.58347 139.79097 407 ft 128 kts 214°
2026-05-08 04:38 35.57641 139.78458 280 ft 128 kts 210°
2026-05-08 04:38 35.56911 139.77844 115 ft 127 kts 207°
2026-05-08 04:38 35.56193 139.77241 31 ft 113 kts 215°
2026-05-08 04:38 35.55652 139.76770 31 ft 78 kts 214°
2026-05-08 04:39 35.55308 139.76474 31 ft 36 kts 215°
2026-05-08 04:39 35.55146 139.76346 31 ft 24 kts 203°
2026-05-08 04:39 35.55052 139.76319 31 ft 0 kts 189°
2026-05-08 04:39 35.55024 139.76313 30 ft 9 kts 189°
2026-05-08 04:40 35.54948 139.76308 29 ft 12 kts 168°
2026-05-08 04:40 35.54904 139.76382 29 ft 11 kts 81°
2026-05-08 04:40 35.54966 139.76452 29 ft 14 kts 36°
2026-05-08 04:40 35.55056 139.76531 29 ft 18 kts 36°
2026-05-08 04:41 35.55129 139.76661 29 ft 20 kts 60°
2026-05-08 04:41 35.55194 139.76797 29 ft 18 kts 59°
2026-05-08 04:41 35.55259 139.76933 29 ft 18 kts 60°
2026-05-08 04:41 35.55260 139.77042 29 ft 8 kts 144°
2026-05-08 04:42 35.55202 139.77088 29 ft 11 kts 149°
2026-05-08 04:42 35.55126 139.77143 29 ft 14 kts 150°
2026-05-08 04:42 35.55036 139.77207 29 ft 16 kts 150°
2026-05-08 04:42 35.54934 139.77280 29 ft 16 kts 149°
2026-05-08 04:43 35.54839 139.77311 29 ft 15 kts 197°
2026-05-08 04:43 35.54785 139.77217 29 ft 15 kts 245°
2026-05-08 04:43 35.54762 139.77158 29 ft 8 kts 240°
2026-05-08 04:43 35.54736 139.77084 29 ft 11 kts 262°
2026-05-08 04:44 35.54740 139.77008 29 ft 6 kts 262°
2026-05-08 04:44 35.54727 139.76976 29 ft 3 kts 240°
2026-05-08 04:44 35.54715 139.76951 29 ft 3 kts 240°
2026-05-08 04:44 35.54709 139.76939 29 ft 0 kts 240°